Location: Corte Bragagnani
(45.3000°N, 11.1000°E)
Time: 23:32:21
(UTC+00:00)

Cosmos 1812 Rocket - Pass Details

Date: 09 April 2020
Orbit: 607 x 631 km, 82.5° (Epoch: 27 May)

Event Time Altitude Azimuth Distance (km) Brightness Sun altitude
Exits shadow 19:25:18 29° 121° (ESE) 1,136 4.3 -15.7°
Maximum altitude 19:26:24 33° 91° (E) 1,030 4.2 -15.9°
Drops below altitude 10° 19:30:18 10° 27° (NNE) 1,968 6.2 -16.5°
Sets 19:32:41 0° 18° (NNE) 2,876 7.2 -16.9°
